Regional Weather Roundup
Issued by NWS Charleston, SC

Current Version | Previous Version | Text Only | Print | Product List | Glossary Off
Versions: 1 2 3 4 5 6 7 8 9 10 11 12 13 14 15 16 17 18 19 20 21 22 23 24 25 26 27 28 29 30 31 32 33 34 35 36 37 38 39 40 41 42 43 44 45 46 47 48 49 50
000 ASUS42 KCHS 041327 RWRCHS REGIONAL WEATHER ROUNDUP NATIONAL WEATHER SERVICE CHARLESTON SC 800 AM EST SUN DEC 04 2016 NOTE: "FAIR" INDICATES FEW OR NO CLOUDS BELOW 12,000 FEET WITH NO SIGNIFICANT WEATHER AND/OR OBSTRUCTIONS TO VISIBILITY. NOT ALL STATIONS ARE QUALITY CONTROLLED. USE DATA WITH CAUTION... ESPECIALLY DEWPOINT OBSERVATIONS. SCZ027-030-031-034>040-042>050-041400- ...SOUTHEAST SOUTH CAROLINA... CITY SKY/WX TMP DP RH WIND PRES REMARKS N CHARLESTON CLOUDY 50 38 63 NE10 30.20F WATERFRONT PRK N/A 52 45 77 NE14 30.21S MOUNT PLEASANT FAIR 48 39 71 NE5 30.21F JOHNS ISLAND FAIR 52 41 66 N9 30.20F PINOPOLIS N/A 50 43 76 E17 30.14F MONCKS CORNER CLOUDY 48 36 61 E9 30.22S SUMMERVILLE CLOUDY 50 37 62 NE3 30.23R BEAUFORT MCAS CLOUDY 52 40 63 NE10 30.20R BEAUFORT ARPT CLOUDY 52 43 71 NE13 30.19R HAZE HILTON HEAD IS CLOUDY 54 46 76 NE12 30.17R WALTERBORO CLOUDY 52 37 58 NE6 30.22R ALLENDALE CLOUDY 50 37 62 VRB3 30.20F ...SOUTHERN MIDLANDS AND PEE DEE... CITY SKY/WX TMP DP RH WIND PRES REMARKS GEORGETOWN NOT AVBL KINGSTREE CLOUDY 45 36 70 N3 30.25F ORANGEBURG CLOUDY 48 37 65 NE6 30.23S BARNWELL NOT AVBL AIKEN CLOUDY 45 41 87 NE6 30.25R MANNING NOT AVBL COLUMBIA CLOUDY 49 41 74 E6 30.23F SUMTER CLOUDY 46 40 81 E8 30.22F FLORENCE CLOUDY 46 41 82 E6 30.27F MYRTLE BEACH CLOUDY 48 36 61 NE9 30.28S N MYRTLE BEACH CLOUDY 47 37 68 NE5 30.26S $$ GAZ063-065-086>088-099>101-113>116-118-119-134>141-150-041400- ...SOUTHEAST GEORGIA... CITY SKY/WX TMP DP RH WIND PRES REMARKS SAVANNAH ARPT MOCLDY 53 43 68 NE8 30.17S HUNTER AAF CLOUDY 54 49 83 NE10 30.14R FORT STEWART CLOUDY 52 44 74 N7 30.15R STATESBORO CLOUDY 53 41 64 E6 30.18F SYLVANIA CLOUDY N/A N/A N/A E7 30.19F CLAXTON CLOUDY 53 46 75 NE8 30.17S ...CSRA...CENTRAL AND FAR SOUTHEAST GEORGIA... CITY SKY/WX TMP DP RH WIND PRES REMARKS THOMSON CLOUDY 49 44 83 E6 30.23F AUGUSTA-BUSH CLOUDY 51 40 65 E7 30.20S AUGUSTA-DANIEL CLOUDY 49 38 65 NE8 30.21S SWAINSBORO CLOUDY 52 36 54 E9 30.17R VIDALIA CLOUDY 54 46 76 E12 30.15S EASTMAN CLOUDY 54 36 49 E7 30.16S HAZLEHURST CLOUDY 55 48 78 E6 30.12S ALMA CLOUDY 53 47 79 NE6 30.12R WAYCROSS PTCLDY 59 55 85 E8 30.11R JESUP CLOUDY 55 52 88 NE7 30.14R BAXLEY CLOUDY 55 50 82 E5 30.13S BRUNSWICK CLOUDY 64 59 82 E6 30.12R SAINT SIMONS CLOUDY 65 58 78 E8 30.11R $$ SCZ027-028-034-036>038-045-046-048>050-GAZ119-141-041400- ...LAKE AND SUPPLEMENTAL COASTAL OBSERVATIONS... STATION/POSITION TIME TEMP WIND PRES WAVE SWELL AIR SEA DIR/SP/G HT/PER HT/PER/DIR (UTC) (F) (DEG/KT/KT) (MB) (FT/S) (FT/S/D) WINYAH BAY 1245 48 10/ 5 1024.0S LAKE MURRAY 1220 46 50/ 3/ 5 1022.7 ACE BASIN NERRS 1245 51 20/ 3 1022.0S FORT PULASKI 1300 57 61 50/ 14/ 17 1021.6 SAPELO ISLAND 1300 64 80/ 8 1020.0 $$ ANZ835-935-AMZ111-154-330-350-352-354-370-450-454-472-041400- ...C-MAN AND BUOY OBSERVATIONS... STATION/POSITION TIME TEMP WIND PRES WAVE SWELL AIR SEA DIR/SP/G HT/PER HT/PER/DIR (UTC) (F) (DEG/KT/KT) (MB) (FT/S) (FT/S/D) BUOY 41004 1250 62 74 30/ 10/ 14 1022.4R 2/ 8 2/ 90/ 8 BUOY 41008 1250 66 65 100/ 14/ 16 1019.6F 4/ 5 2/ 90/ 7 FOLLY BEACH CMAN 1300 53 40/ 19/ 22 1022.9F CAPERS NEARSHORE 1308 54 62 50/ 17/ 23 1022.0F FRIPP NEARSHORE 1308 58 62 50/ 17/ 21 1021.7S STATION/POSITION TIME TEMP WIND PRES WAVE SWELL AIR SEA DIR/SP/G HT/PER HT/PER/DIR (UTC) (F) (DEG/KT/KT) (MB) (FT/S) (FT/S/D) 5E ST. MARYS GA 1300 65 N/A 4/ 6 FRYING PAN BUOY 1300 60 40/ 10/ 14 1023.5 BUOY 41025 1250 54 76 20/ 12/ 16 1024.0R 5/ 9 5/ 50/ 9 CAPE LOOKOUT NC 1200 49 10/ 9/ 11 1024.4R BUOY 41002 1250 65 73 60/ 10/ 14 1022.0R 5/ 9 5/ 30/ 9 BUOY 41010 NOT AVBL ST AUGUSTINE FL 1300 69 66 120/ 14/ 15 1019.5F $$

USA.gov is the U.S. government's official web portal to all federal, state and local government web resources and services.